This is the latest recevied weather packets stored in our database for station/object N5ATR. If no packets are shown the sender has not sent any weather packets the latest 10 day(s).
| Time | Temp. | Humidity | Pressure | Rain* | Wind** | Luminosity | Snow |
|---|---|---|---|---|---|---|---|
| 1778080125 | 7.22° C | 66% | 1013.9 hPa | 0 mm | - | 393 W/m² | - |
| 1778079821 | 7.22° C | 65% | 1013.9 hPa | 0 mm | - | 377 W/m² | - |
| 1778079518 | 7.22° C | 65% | 1013.7 hPa | 0 mm | - | 360 W/m² | - |
| 1778079214 | 6.67° C | 67% | 1014.1 hPa | 0 mm | - | 343 W/m² | - |
| 1778078912 | 6.67° C | 68% | 1014.3 hPa | 0 mm | - | 328 W/m² | - |
| 1778078608 | 6.67° C | 68% | 1014.1 hPa | 0 mm | - | 312 W/m² | - |
| 1778078307 | 6.67° C | 68% | 1014.1 hPa | 0 mm | - | 295 W/m² | - |
| 1778078004 | 6.67° C | 69% | 1014.1 hPa | 0 mm | - | 279 W/m² | - |
| 1778077702 | 6.11° C | 71% | 1013.9 hPa | 0 mm | - | 261 W/m² | - |
| 1778077399 | 6.11° C | 70% | 1013.9 hPa | 0 mm | - | 244 W/m² | - |
| 1778077098 | 5.56° C | 72% | 1014 hPa | 0 mm | - | 228 W/m² | - |
| 1778076795 | 5.56° C | 73% | 1013.9 hPa | 0 mm | - | 212 W/m² | - |
| 1778076493 | 5.56° C | 73% | 1013.9 hPa | 0 mm | - | 154 W/m² | - |
| 1778076189 | 5.56° C | 73% | 1014 hPa | 0 mm | - | 39 W/m² | - |
| 1778075887 | 5.56° C | 74% | 1014 hPa | 0 mm | - | 37 W/m² | - |
| 1778075583 | 5° C | 74% | 1013.7 hPa | 0 mm | - | 35 W/m² | - |
| 1778075280 | 5° C | 75% | 1013.8 hPa | 0 mm | - | 35 W/m² | - |
| 1778074976 | 5° C | 76% | 1013.8 hPa | 0 mm | - | 33 W/m² | - |
| 1778074673 | 5° C | 76% | 1013.8 hPa | 0 mm | - | 39 W/m² | - |
| 1778074370 | 5° C | 76% | 1013.8 hPa | 0 mm | - | 33 W/m² | - |
| 1778074067 | 4.44° C | 76% | 1013.5 hPa | 0 mm | - | 50 W/m² | - |
| 1778073764 | 4.44° C | 77% | 1013.4 hPa | 0 mm | - | 33 W/m² | - |
| 1778073462 | 4.44° C | 77% | 1013.4 hPa | 0 mm | - | 28 W/m² | - |
| 1778073158 | 4.44° C | 76% | 1013.2 hPa | 0 mm | - | 27 W/m² | - |
| 1778072854 | 4.44° C | 77% | 1013 hPa | 0 mm | - | 26 W/m² | - |
* Rain latest hour (hover to see other rain measurements)
** Current wind speed in m/s (hover to see current wind gust speed)